Weather in Tavildara

Tajikistan     38°41′46″N   70°28′54″E
temp.,
°C
wind,
m/s
gust,
m/s
humid.,
%
clouds,
%
prec.,
mm/h
press.,
hPa
HPBL,
m
13 may, thu
thu1323:00+6wsw12881 4.1 101518
02:00+5e11843 0.2 101510
05:00+4e22812 0.3 101514
08:00+8s01656 0.2 1015360
11:00+11wsw33605 1.7 10141185
14:00+11wsw446394 4.1 10131066
17:00+11wsw336393 7.9 1013921
20:00+7wnw2281100 4.5 1016217
14 may, fri
fri1423:00+4se1193100 10.5 1019375
02:00+4e2290100 3.8 1018213
05:00+4e228694 3.8 101785
08:00+7e1269100 0.0 1017442
11:00+11wsw115293 1.1 10141429
14:00+12sw224791 1.0 10131797
17:00+12ssw215043 1.4 10131280
20:00+8sw227196 1.5 101524
15 may, sat
sat1523:00+6ese227641 2.1 101619
02:00+5e227119 0.4 101518
05:00+4e22675 0.4 101516
08:00+9e11520 0.0 1015399
11:00+13w11432 0.2 10131583
14:00+15wnw223820 0.1 10112340
17:00+14wsw324238 0.3 10101858
20:00+9w127285 1.2 101325
16 may, sun
sun1623:00+7e2278100 3.4 101657
02:00+6ne22764 0.0 101513
05:00+5e11700 0.0 101510
08:00+11e01540 0.0 1016460
11:00+14wnw22384 0.0 10141854
14:00+16wnw34344 0.0 10122372
17:00+15w33382 0.0 10111698
20:00+10w22580 0.0 101412
17 may, mon
mon1723:00+8s11620 0.0 101510
02:00+7se11641 0.0 101610
05:00+6e22600 0.0 101610
08:00+12ene11440 0.0 1016396
11:00+16wnw24285 0.0 10141985
14:00+17w46262 0.0 10122739
17:00+17w24240 0.0 10121758
20:00+11wnw11420 0.0 101310